This demonstration page uses our WeatherBlox Daily Observations layout. Learn more.

Left ArrowRight Arrow

39.12711, -84.51439

Hourly Observations for October 26, 2016

Temp ( °F °C ) Dew Point ( °F °C ) Humidity (%) Winds ( mph kmh ) Pressure ( in mb ) Visibility ( mi km ) Precip ( " mm )
12:53 am 00:53 Clear 41 5 38 3.3 89 89 NE 3 6 30.38 1029 10 16 0.00 0.00
1:53 am 01:53 Clear 40 4.4 40 4.4 100 100 Calm 30.36 1028 10 16 0.00 0.00
2:53 am 02:53 Clear 39 3.9 39 3.9 100 100 NNE 3 6 30.36 1028 10 16 0.00 0.00
3:53 am 03:53 Cloudy 42 5.6 41 5 96 96 Calm 30.36 1028 10 16 0.00 0.00
4:53 am 04:53 Clear with Mist and Fog 39 3.9 39 3.9 100 100 Calm 30.34 1027 4 6 0.00 0.00
5:53 am 05:53 Partly Cloudy 39 3.9 39 3.9 100 100 Calm 30.33 1027 10 16 0.00 0.00
6:53 am 06:53 Cloudy 41 5 41 5 100 100 NNE 3 6 30.32 1027 10 16 0.00 0.00
7:53 am 07:53 Mostly Cloudy 45 7.2 40 4.4 83 83 NNE 5 7 30.33 1027 10 16 0.00 0.00
8:53 am 08:53 Mostly Cloudy 45 7.2 40 4.4 83 83 NE 5 7 30.32 1027 10 16 0.00 0.00
9:53 am 09:53 Partly Cloudy 49 9.4 40 4.4 71 71 ENE 6 9 30.34 1028 10 16 0.00 0.00
10:53 am 10:53 Sunny 50 10 39 3.9 66 66 E 6 9 30.32 1027 10 16 0.00 0.00
11:53 am 11:53 Sunny 54 12.2 41 5 62 62 ESE 7 11 30.30 1026 10 16 0.00 0.00
12:53 pm 12:53 Mostly Sunny 57 13.9 41 5 55 55 SE 8 13 30.26 1025 10 16 0.00 0.00
1:53 pm 13:53 Sunny 61 16.1 43 6.1 52 52 SE 8 13 30.21 1023 10 16 0.00 0.00
2:53 pm 14:53 Sunny 63 17.2 45 7.2 52 52 S 6 9 30.17 1022 10 16 0.00 0.00
3:53 pm 15:53 Sunny 65 18.3 46 7.8 51 51 SE 6 9 30.14 1021 10 16 0.00 0.00
4:53 pm 16:53 Mostly Cloudy 66 18.9 48 8.9 52 52 Calm 30.13 1020 10 16 0.00 0.00
5:53 pm 17:53 Partly Cloudy 63 17.2 49 9.4 60 60 NE 6 9 30.12 1020 10 16 0.00 0.00
6:53 pm 18:53 Clear 58 14.4 51 10.6 78 78 ENE 3 6 30.11 1020 10 16 0.00 0.00
7:53 pm 19:53 Clear 53 11.7 51 10.6 93 93 Calm 30.12 1020 10 16 0.00 0.00
8:53 pm 20:53 Clear 53 11.7 51 10.6 93 93 S 3 6 30.10 1019 10 16 0.00 0.00
9:53 pm 21:53 Clear 55 12.8 51 10.6 87 87 Calm 30.08 1019 10 16 0.00 0.00
10:53 pm 22:53 Clear 52 11.1 51 10.6 97 97 Calm 30.08 1019 10 16 0.00 0.00
11:53 pm 23:53 Cloudy 53 11.7 52 11.1 96 96 Calm 30.07 1018 10 16 0.00 0.00

Powered by AerisWeather